[[{"header":{"parameterUnit":"m.s-1","parameterCategory":1,"la1":30.2991,"la2":30.254,"lo1":-89.0895,"lo2":-89.0444,"dy":0.0017,"dx":0.0017,"nx":28,"ny":28,"refTime":"2025-08-09T03:00:00:Z","depth":0,"parameterNumber":2,"parameterNumberName":"U-component_of_WINDS"},"data":[0,0,0,0,0,0,0,0,0,0,0,0,0,0,0,0,0,0,0,0,0,0,0,0,0,0,0,0,0,0,0,0,0,0,0,0,0,0,0,0,0,0,0,0,0,0,0,0,0,0,0,0,0,0,0,0,0,0,-4.7421,-4.7421,0,-4.7465,-4.7466,-4.7466,-4.7361,-4.7357,-4.7354,-4.7351,-4.7398,-4.7402,-4.7407,0,0,0,0,0,0,0,0,0,0,0,0,0,-4.7247,-4.7251,-4.7421,-4.7421,-4.7422,-4.7465,-4.7466,-4.7466,-4.7361,-4.7357,-4.7353,-4.7349,-4.7397,-4.7402,-4.7407,0,0,0,0,0,0,0,0,0,0,0,0,0,-4.731,-4.7252,-4.7421,-4.7375,-4.7371,-4.7465,-4.7466,-4.7466,-4.7362,-4.7357,-4.7352,-4.7348,-4.7395,-4.7401,-4.7408,-4.7549,0,0,-4.7428,-4.7431,0,0,0,0,0,0,0,0,-4.7307,-4.7317,-4.7381,-4.7378,-4.7374,-4.7402,-4.7421,-4.7494,-4.7364,-4.7366,-4.7351,-4.7345,-4.7404,-4.7409,-4.7429,-4.7551,-4.7553,-4.7428,-4.7432,-4.7435,-4.7437,0,0,0,0,0,0,0,-4.7303,-4.7314,-4.7438,-4.7382,-4.7378,-4.7352,-4.7356,-4.7435,-4.7412,-4.7365,-4.7358,-4.7364,-4.7401,-4.7423,-4.7429,-4.7554,-4.7428,-4.7434,-4.7438,-4.7441,-4.7795,-4.78,0,0,0,0,0,0,-4.7304,-4.7311,-4.7437,-4.744,-4.7327,-4.736,-4.7363,-4.7398,-4.7411,-4.7408,-4.7368,-4.7359,-4.7414,-4.7421,-4.743,-4.7597,-4.7435,-4.7441,-4.7445,-4.779,-4.7796,-4.7802,0,0,0,0,0,0,-4.7301,-4.7316,-4.7435,-4.7373,-4.7387,-4.7368,-4.7408,-4.7402,-4.7423,-4.7414,-4.7409,-4.7395,-4.741,-4.7421,-4.752,-4.7597,-4.7444,-4.745,-4.7783,-4.7792,-4.7799,-4.7931,0,0,0,0,0,0,-4.7296,-4.7315,-4.7368,-4.7375,-4.739,-4.7524,-4.7413,-4.7406,-4.7435,-4.7423,-4.7437,-4.7435,-4.7407,-4.7511,-4.7527,-4.7603,-4.7455,-4.7776,-4.7787,-4.7797,-4.792,-4.7943,-4.7963,0,0,0,0,0,-4.729,-4.7404,-4.7372,-4.7387,-4.7456,-4.7529,-4.7537,-4.7503,-4.7441,-4.7495,-4.7489,-4.7434,-4.7586,-4.7522,-4.7539,-4.7619,-4.7771,-4.7784,-4.7796,-4.791,-4.7938,-4.7962,0,0,0,0,0,0,-4.7407,-4.7404,-4.7368,-4.7488,-4.7509,-4.7511,-4.7577,-4.7534,-4.7574,-4.7561,-4.7517,-4.7521,-4.7629,-4.7633,-4.7562,-4.7756,-4.7668,-4.7684,-4.775,-4.7776,-4.7797,-4.7794,-4.7461,0,0,0,0,0,-4.7446,-4.7505,-4.75,-4.7606,-4.7618,-4.7596,-4.7627,-4.7598,-4.7619,-4.7628,-4.7629,-4.7652,-4.7704,-4.774,-4.7788,-4.792,-4.7922,-4.7983,-4.8004,-4.8022,-4.8037,-4.8108,-4.8135,-4.7843,-4.7842,-4.7842,0,0,-4.7529,-4.7535,-4.7575,-4.7629,-4.7643,-4.7705,-4.7605,-4.7675,-4.7721,-4.7639,-4.7732,-4.7734,-4.7757,-4.7873,-4.7925,-4.788,-4.8118,-4.8038,-4.8052,-4.8057,-4.8123,-4.8151,-4.8176,-4.7851,-4.7849,-4.7848,0,0,-4.7711,-4.7721,-4.7811,-4.7827,-4.7848,-4.7833,-4.7855,-4.7863,-4.7861,-4.7954,-4.7894,-4.7949,-4.804,-4.8059,-4.8081,-4.8272,-4.8223,-4.8288,-4.84,-4.847,-4.8493,-4.8514,-4.8583,-4.8608,-4.8303,-4.8303,-4.8304,0,-4.7812,-4.7903,-4.7863,-4.7938,-4.7964,-4.7892,-4.7983,-4.8,-4.8037,-4.8057,-4.8006,-4.812,-4.813,-4.8251,-4.8297,-4.8317,-4.8341,-4.8287,-4.8493,-4.8513,-4.8531,-4.8597,-4.8623,-4.8311,-4.831,-4.831,-4.8309,0,-4.8026,-4.809,-4.816,-4.8197,-4.8231,-4.8314,-4.8287,-4.8326,-4.8295,-4.8285,-4.8382,-4.8392,-4.8441,-4.8467,-4.8437,-4.8584,-4.8556,-4.85,-4.8411,-4.8568,-4.8629,-4.8653,-4.8323,-4.832,-4.8317,-4.8315,0,0,-4.8283,-4.8297,-4.8324,-4.834,-4.8359,-4.8408,-4.8488,-4.8535,-4.8571,-4.8598,-4.8665,-4.8744,-4.8693,-4.8718,-4.869,-4.8751,-4.8903,-4.8687,-4.8687,-4.8728,-4.9066,-4.9109,-4.9139,-4.887,-4.8875,-4.8879,-4.9065,0,-4.8464,-4.8601,-4.8568,-4.8703,-4.8763,-4.8695,-4.8765,-4.8785,-4.8778,-4.8828,-4.882,-4.8878,-4.8805,-4.882,-4.8877,-4.8872,-4.897,-4.8858,-4.8933,-4.8936,-4.8931,-4.917,-4.9215,-4.9391,-4.9088,-4.9092,-4.9095,0,-4.8694,-4.8731,-4.8873,-4.8882,-4.8906,-4.8969,-4.9011,-4.9059,-4.908,-4.9071,-4.91,-4.9059,-4.9139,-4.9049,-4.9159,-4.9083,-4.9112,-4.9114,-4.912,-4.9127,-4.9026,-4.9185,-4.9446,-4.9473,-4.9132,-4.9129,-4.9126,0,-4.8869,-4.8954,-4.905,-4.9066,-4.9079,-4.9126,-4.9134,-4.9149,-4.9181,-4.9217,-4.9237,-4.9283,-4.9308,-4.9344,-4.9318,-4.9254,-4.9433,-4.934,-4.9429,-4.943,-4.947,-4.9468,-4.9741,-4.9487,-4.9487,-4.9486,-4.9486,0,-4.9076,-4.9166,-4.9129,-4.9188,-4.9287,-4.9248,-4.9347,-4.9347,-4.9362,-4.9421,-4.9365,-4.9422,-4.9383,-4.9436,-4.9416,-4.9511,-4.9522,-4.9518,-4.9512,-4.9524,-4.9525,-4.9543,-4.9531,-4.9493,-4.9492,-4.949,-4.9489,0,-4.9289,-4.9268,-4.9368,-4.9373,-4.9376,-4.9449,-4.9453,-4.9509,-4.9497,-4.9573,-4.9588,-4.9571,-4.9631,-4.9608,-4.9672,-4.9659,-4.9781,-4.9758,-4.9774,-4.9768,-4.9859,-4.9851,-5.0154,-5.0192,-4.9913,-4.9915,-4.9918,0,-4.9422,-4.949,-4.9502,-4.9537,-4.9549,-4.9606,-4.9638,-4.9602,-4.9637,-4.9667,-4.9719,-4.9774,-4.9817,-4.9916,-4.991,-4.9959,-4.9938,-5.0041,-4.9945,-4.9955,-4.9941,-4.9938,-4.9945,-5.006,-5.0063,-5.0066,-5.0068,0,-4.9663,-4.9649,-4.9696,-4.9741,-4.978,-4.9813,-4.9841,-4.9874,-4.9839,-4.9882,-4.9943,-4.9976,-5.0041,-5.0097,-5.0141,-5.0149,-5.0105,-5.0098,-5.0121,-5.0135,-5.0142,-5.0141,-4.9827,-5.0092,-5.0089,-5.0088,-5.0086,-5.0085,-4.984,-4.9898,-4.9915,-4.997,-4.9988,-5.0016,-5.0069,-5.0064,-5.0114,-5.0164,-5.014,-5.0211,-5.0231,-5.0285,-5.0301,-5.0356,-5.0316,-5.035,-5.0358,-5.0368,-5.038,-5.0132,-5.0364,-5.0363,-5.0362,-5.0362,-5.0361,0,-5.0078,-5.0087,-5.0137,-5.0179,-5.0223,-5.0175,-5.0204,-5.0244,-5.0307,-5.0329,-5.0372,-5.0443,-5.0497,-5.0496,-5.0546,-5.0591,-5.0572,-5.0605,-5.0602,-5.0605,-5.0412,-5.0387,-5.062,-5.062,-5.062,-5.062,-5.062,-5.062,-5.0207,-5.0302,-5.0291,-5.0394,-5.0402,-5.047,-5.0491,-5.0517,-5.0535,-5.0616,-5.0661,-5.0659,-5.0672,-5.0724,-5.0772,-5.077,-5.0792,-5.0834,-5.0825,-5.0644,-5.0619,-5.0594,-5.0571,-5.0839,-5.0839,-5.1013,-5.1015,-5.1016]},{"header":{"parameterUnit":"m.s-1","parameterCategory":1,"la1":30.2991,"la2":30.254,"lo1":-89.0895,"lo2":-89.0444,"dy":0.0017,"dx":0.0017,"nx":28,"ny":28,"refTime":"2025-08-09T03:00:00:Z","depth":0,"parameterNumber":3,"parameterNumberName":"V-component_of_WINDS"},"data":[0,0,0,0,0,0,0,0,0,0,0,0,0,0,0,0,0,0,0,0,0,0,0,0,0,0,0,0,0,0,0,0,0,0,0,0,0,0,0,0,0,0,0,0,0,0,0,0,0,0,0,0,0,0,0,0,0,0,-1.9526,-1.9526,0,-1.954,-1.954,-1.9541,-1.9503,-1.9502,-1.9501,-1.9499,-1.9515,-1.9517,-1.9518,0,0,0,0,0,0,0,0,0,0,0,0,0,-1.9466,-1.9468,-1.9526,-1.9526,-1.9526,-1.954,-1.954,-1.9541,-1.9503,-1.9502,-1.95,-1.9499,-1.9515,-1.9517,-1.9518,0,0,0,0,0,0,0,0,0,0,0,0,0,-1.9488,-1.9468,-1.9526,-1.9509,-1.9508,-1.954,-1.954,-1.9541,-1.9503,-1.9502,-1.95,-1.9498,-1.9514,-1.9516,-1.9519,-1.9568,0,0,-1.9526,-1.9527,0,0,0,0,0,0,0,0,-1.9487,-1.949,-1.9512,-1.9511,-1.9509,-1.9518,-1.9525,-1.955,-1.9504,-1.9505,-1.9499,-1.9497,-1.9518,-1.952,-1.9526,-1.9569,-1.957,-1.9526,-1.9527,-1.9528,-1.9529,0,0,0,0,0,0,0,-1.9485,-1.9489,-1.9532,-1.9512,-1.951,-1.9501,-1.9502,-1.953,-1.9521,-1.9505,-1.9502,-1.9504,-1.9517,-1.9524,-1.9526,-1.957,-1.9526,-1.9528,-1.9529,-1.953,-1.9653,-1.9655,0,0,0,0,0,0,-1.9486,-1.9488,-1.9531,-1.9532,-1.9493,-1.9504,-1.9505,-1.9517,-1.9521,-1.952,-1.9506,-1.9503,-1.9521,-1.9524,-1.9527,-1.9585,-1.9528,-1.953,-1.9532,-1.9651,-1.9653,-1.9655,0,0,0,0,0,0,-1.9485,-1.949,-1.9531,-1.9509,-1.9514,-1.9507,-1.952,-1.9518,-1.9525,-1.9521,-1.952,-1.9515,-1.952,-1.9523,-1.9558,-1.9585,-1.9531,-1.9533,-1.9649,-1.9652,-1.9654,-1.9702,0,0,0,0,0,0,-1.9483,-1.949,-1.9509,-1.951,-1.9515,-1.9562,-1.9522,-1.952,-1.9529,-1.9525,-1.953,-1.9529,-1.9519,-1.9555,-1.956,-1.9587,-1.9535,-1.9646,-1.965,-1.9654,-1.9698,-1.9706,-1.9713,0,0,0,0,0,-1.9481,-1.9522,-1.951,-1.9515,-1.9539,-1.9564,-1.9566,-1.9554,-1.9532,-1.9551,-1.9548,-1.9529,-1.9581,-1.9558,-1.9564,-1.9592,-1.9645,-1.9649,-1.9653,-1.9694,-1.9704,-1.9712,0,0,0,0,0,0,-1.9525,-1.9522,-1.9509,-1.9551,-1.9558,-1.9557,-1.9581,-1.9565,-1.9578,-1.9574,-1.9557,-1.9559,-1.9596,-1.9597,-1.9573,-1.964,-1.9609,-1.9615,-1.9638,-1.9647,-1.9655,-1.9654,-1.9537,0,0,0,0,0,-1.9539,-1.9559,-1.9556,-1.9593,-1.9597,-1.9588,-1.9599,-1.9588,-1.9595,-1.9598,-1.9597,-1.9605,-1.9622,-1.9635,-1.9651,-1.9697,-1.9697,-1.9719,-1.9726,-1.9733,-1.9738,-1.9762,-1.9772,-1.9669,-1.9669,-1.9669,0,0,-1.9569,-1.957,-1.9584,-1.9602,-1.9606,-1.9628,-1.9591,-1.9616,-1.9631,-1.9601,-1.9634,-1.9634,-1.9641,-1.9681,-1.9699,-1.9683,-1.9766,-1.9738,-1.9743,-1.9745,-1.9768,-1.9777,-1.9786,-1.9672,-1.9672,-1.9671,0,0,-1.9636,-1.9638,-1.967,-1.9674,-1.968,-1.9674,-1.9681,-1.9683,-1.9681,-1.9713,-1.9691,-1.9709,-1.9741,-1.9747,-1.9754,-1.982,-1.9803,-1.9826,-1.9866,-1.9889,-1.9897,-1.9904,-1.9929,-1.9937,-1.9831,-1.9831,-1.9831,0,-1.9673,-1.9704,-1.9688,-1.9714,-1.9722,-1.9695,-1.9727,-1.9732,-1.9743,-1.975,-1.9732,-1.977,-1.9772,-1.9814,-1.983,-1.9836,-1.9844,-1.9826,-1.9897,-1.9904,-1.9911,-1.9934,-1.9943,-1.9834,-1.9834,-1.9833,-1.9833,0,-1.9749,-1.9771,-1.9796,-1.9807,-1.9818,-1.9847,-1.9835,-1.9848,-1.9836,-1.9831,-1.9864,-1.9866,-1.9882,-1.989,-1.9879,-1.993,-1.992,-1.99,-1.9869,-1.9924,-1.9945,-1.9953,-1.9838,-1.9837,-1.9836,-1.9835,0,0,-1.9846,-1.9846,-1.9855,-1.986,-1.9864,-1.988,-1.9907,-1.9922,-1.9934,-1.9942,-1.9964,-1.999,-1.9972,-1.998,-1.9968,-1.9989,-2.0042,-1.9966,-1.9966,-1.9981,-2.0098,-2.0114,-2.0124,-2.003,-2.0031,-2.0033,-2.0098,0,-1.9911,-1.9957,-1.9943,-1.999,-2.001,-1.9983,-2.0006,-2.0011,-2.0007,-2.0023,-2.0019,-2.0038,-2.0011,-2.0016,-2.0035,-2.0032,-2.0065,-2.0026,-2.0051,-2.0052,-2.0051,-2.0135,-2.0152,-2.0214,-2.0106,-2.0107,-2.0108,0,-1.9995,-2.0005,-2.0054,-2.0054,-2.0061,-2.0083,-2.0095,-2.011,-2.0115,-2.0111,-2.0119,-2.0103,-2.0129,-2.0097,-2.0133,-2.0107,-2.0116,-2.0115,-2.0117,-2.012,-2.0085,-2.0141,-2.0233,-2.0243,-2.0121,-2.012,-2.0119,0,-2.0061,-2.0087,-2.0119,-2.0124,-2.0124,-2.014,-2.014,-2.0143,-2.0153,-2.0163,-2.0169,-2.0183,-2.0191,-2.0201,-2.019,-2.0167,-2.0228,-2.0194,-2.0225,-2.0225,-2.024,-2.024,-2.0336,-2.0244,-2.0244,-2.0244,-2.0244,0,-2.0136,-2.0167,-2.0149,-2.0169,-2.0202,-2.0185,-2.0219,-2.0217,-2.0219,-2.0238,-2.0216,-2.0234,-2.0217,-2.0234,-2.0224,-2.0256,-2.0259,-2.0257,-2.0254,-2.0259,-2.026,-2.0266,-2.0262,-2.0246,-2.0246,-2.0245,-2.0245,0,-2.0216,-2.0205,-2.0239,-2.0235,-2.0235,-2.026,-2.0258,-2.0276,-2.0269,-2.0294,-2.0299,-2.0289,-2.0307,-2.0296,-2.0315,-2.0309,-2.035,-2.0341,-2.0348,-2.0346,-2.0378,-2.0376,-2.0482,-2.0496,-2.0395,-2.0396,-2.0397,0,-2.0266,-2.0289,-2.0288,-2.0299,-2.0301,-2.0319,-2.0328,-2.0311,-2.0322,-2.0328,-2.0346,-2.0362,-2.0375,-2.0405,-2.04,-2.0414,-2.0406,-2.0442,-2.0408,-2.0413,-2.0408,-2.0407,-2.0409,-2.045,-2.0451,-2.0452,-2.0453,0,-2.0355,-2.0348,-2.0362,-2.0374,-2.0386,-2.0395,-2.0402,-2.0412,-2.0395,-2.0408,-2.0426,-2.0436,-2.0454,-2.0471,-2.0483,-2.0484,-2.0466,-2.0463,-2.0471,-2.0478,-2.0481,-2.048,-2.0368,-2.0461,-2.0461,-2.046,-2.0459,-2.0459,-2.0422,-2.0441,-2.0443,-2.0459,-2.0462,-2.0469,-2.0486,-2.0481,-2.0496,-2.051,-2.0498,-2.052,-2.0523,-2.0537,-2.054,-2.0557,-2.0542,-2.0554,-2.0557,-2.0561,-2.0565,-2.0477,-2.0559,-2.0559,-2.0558,-2.0558,-2.0558,0,-2.0511,-2.051,-2.0525,-2.0535,-2.0548,-2.0528,-2.0535,-2.0547,-2.0566,-2.057,-2.0582,-2.0603,-2.0619,-2.0614,-2.0628,-2.0642,-2.0634,-2.0647,-2.0646,-2.0646,-2.0577,-2.0569,-2.0653,-2.0653,-2.0653,-2.0653,-2.0653,-2.0653,-2.0559,-2.059,-2.0583,-2.0615,-2.0614,-2.0635,-2.064,-2.0646,-2.0649,-2.0673,-2.0685,-2.0682,-2.0682,-2.0696,-2.0709,-2.0707,-2.0714,-2.073,-2.0725,-2.0661,-2.0651,-2.0643,-2.0635,-2.0731,-2.0731,-2.0793,-2.0793,-2.0794]}]]